Location: Katowice
(50.2611°N, 19.0242°E)
Time: 22:31:17
(UTC+02:00)

A-11 Canister half - Pass Details

Date: 25 July 2019
Orbit: 1526 x 1683 km, 47.3° (Epoch: 18 August)

Event Time Altitude Azimuth Distance (km) Brightness Sun altitude
Rises 03:17:02 0° 289° (WNW) 4,835 11.4 -12.9°
Reaches altitude 10° 03:20:47 10° 278° (W) 3,821 10.8 -12.5°
Maximum altitude 03:28:21 27° 226° (SW) 2,668 9.7 -11.8°
Drops below altitude 10° 03:35:45 10° 173° (S) 3,719 10.6 -11.1°
Sets 03:39:21 0° 162° (SSE) 4,683 11.2 -10.7°
